Tracking 30685 objects as of 17-Jun-2025
HD Live streaming from Space Station
objects crossing your sky now

STARLINK-33955

Track STARLINK-33955 now!
10-day predictions
STARLINK-33955 is classified as:


NORAD ID: 63902
Int'l Code: 2025-095N
Perigee: 486.8 km
Apogee: 488.7 km
Inclination: 43.0 °
Period: 94.2 minutes
Semi major axis: 6858 km
RCS: Unknown
Launch date: May 10, 2025
Source: United States (US)
Launch site: AIR FORCE EASTERN TEST RANGE (AFETR)
Your satellite tracking list
Your tracking list is empty




NASA's NSSDC Master Catalog

Two Line Element Set (TLE):
1 63902U 25095N   25168.16667824  .00039556  00000-0  14039-2 0  9990
2 63902  42.9985 235.3863 0001437 260.8368 101.5843 15.28395831  7179
Source of the keplerian elements: AFSPC